This is the latest recevied weather packets stored in our database for station/object DB7GV-8. If no packets are shown the sender has not sent any weather packets the latest 10 day(s).
| Time | Temp. | Humidity | Pressure | Rain* | Wind** | Luminosity | Snow |
|---|---|---|---|---|---|---|---|
| 1777666036 | 12.22° C | 55% | 1023.8 hPa | - | - | - | - |
| 1777665131 | 12.22° C | 54% | 1023.6 hPa | - | - | - | - |
| 1777664226 | 12.78° C | 53% | 1023.4 hPa | - | - | - | - |
| 1777663320 | 13.33° C | 52% | 1023.3 hPa | - | - | - | - |
| 1777662414 | 13.89° C | 50% | 1023.2 hPa | - | - | - | - |
| 1777661509 | 15° C | 48% | 1023.1 hPa | - | - | - | - |
| 1777660603 | 15.56° C | 46% | 1023 hPa | - | - | - | - |
| 1777659698 | 16.67° C | 44% | 1022.8 hPa | - | - | - | - |
| 1777658792 | 17.22° C | 41% | 1022.7 hPa | - | - | - | - |
| 1777657887 | 18.33° C | 39% | 1022.7 hPa | - | - | - | - |
| 1777656982 | 19.44° C | 37% | 1022.6 hPa | - | - | - | - |
| 1777656076 | 20.56° C | 32% | 1022.5 hPa | - | - | - | - |
| 1777655171 | 22.78° C | 25% | 1022.5 hPa | - | - | - | - |
| 1777654266 | 23.89° C | 23% | 1022.5 hPa | - | - | - | - |
| 1777651549 | 25° C | 22% | 1022.7 hPa | - | - | - | - |
| 1777649739 | 25° C | 22% | 1022.8 hPa | - | - | - | - |
| 1777648833 | 25.56° C | 23% | 1022.9 hPa | - | - | - | - |
| 1777647927 | 25° C | 23% | 1023 hPa | - | - | - | - |
| 1777647022 | 25° C | 23% | 1023.1 hPa | - | - | - | - |
| 1777646117 | 25° C | 22% | 1023.1 hPa | - | - | - | - |
| 1777645212 | 25° C | 23% | 1023.1 hPa | - | - | - | - |
| 1777644306 | 24.44° C | 22% | 1023.4 hPa | - | - | - | - |
| 1777643400 | 25.56° C | 23% | 1023.5 hPa | - | - | - | - |
| 1777642495 | 25.56° C | 22% | 1023.6 hPa | - | - | - | - |
| 1777641590 | 26.11° C | 23% | 1023.7 hPa | - | - | - | - |
* Rain since midnight (hover to see other rain measurements)
** Current wind speed in m/s (hover to see current wind gust speed)